Location: Bluff Heights
(33.7692°N, 118.1592°W)
Time: 22:40:41
(UTC+00:00)

Tiros 1 - Pass Details

Date: 25 July 2021
Orbit: 630 x 663 km, 48.4° (Epoch: 20 September)

Event Time Altitude Azimuth Distance (km) Brightness Sun altitude
Rises 12:22:59 0° 291° (WNW) 2,919 10.1 -7.7°
Reaches altitude 10° 12:26:01 10° 271° (W) 2,004 9.2 -7.1°
Maximum altitude 12:28:56 17° 231° (SW) 1,598 8.6 -6.6°
Drops below altitude 10° 12:31:52 10° 191° (S) 1,995 9.3 -6.1°
Sets 12:34:52 0° 171° (S) 2,898 10.3 -5.5°
